| time (UTC) | temp F | wind direction | speed MPH | gust MPH | rain 1hr in | rain 24hr in | rain mn in | humidity % | barometer mb |
| 20260905125804 | 75 | 30 | 2.0 | 8.0 | 0.00 | 0.00 | 0.00 | 85 | 1012.9 |
| 20260905124805 | 74 | 54 | 2.0 | 6.0 | 0.00 | 0.00 | 0.00 | 86 | 1012.8 |
| 20260905124305 | 74 | 39 | 2.0 | 7.0 | 0.00 | 0.00 | 0.00 | 87 | 1012.7 |
| 20260905123806 | 74 | 51 | 2.0 | 7.0 | 0.00 | 0.00 | 0.00 | 89 | 1012.8 |
| 20260905123304 | 73 | 62 | 1.0 | 7.0 | 0.00 | 0.00 | 0.00 | 90 | 1012.9 |
| 20260905122806 | 73 | 59 | 0.0 | 3.0 | 0.00 | 0.00 | 0.00 | 91 | 1012.8 |
| 20260905121805 | 72 | 68 | 0.0 | 3.0 | 0.00 | 0.00 | 0.00 | 92 | 1012.8 |
| 20260905120805 | 72 | 78 | 1.0 | 3.0 | 0.00 | 0.00 | 0.00 | 93 | 1012.7 |
| 20260905115805 | 72 | 296 | 1.0 | 2.0 | 0.00 | 0.00 | 0.00 | 94 | 1012.8 |
| 20260905114304 | 71 | 5 | 1.0 | 3.0 | 0.00 | 0.00 | 0.00 | 96 | 1012.7 |
| 20260905113804 | 71 | 289 | 0.0 | 0.0 | 0.00 | 0.00 | 0.00 | 97 | 1012.6 |
| 20260905113304 | 71 | 289 | 0.0 | 0.0 | 0.00 | 0.00 | 0.00 | 97 | 1012.6 |
| 20260905112805 | 71 | 289 | 0.0 | 0.0 | 0.00 | 0.00 | 0.00 | 97 | 1012.5 |
| 20260905111804 | 71 | 289 | 0.0 | 0.0 | 0.00 | 0.00 | 0.00 | 97 | 1012.4 |
| 20260905110805 | 71 | 289 | 0.0 | 0.0 | 0.00 | 0.00 | 0.00 | 97 | 1012.2 |
| 20260905102806 | 71 | 289 | 0.0 | 0.0 | 0.00 | 0.01 | 0.00 | 97 | 1011.8 |
| 20260905101804 | 71 | 291 | 0.0 | 0.0 | 0.00 | 0.01 | 0.00 | 97 | 1011.8 |
| 20260905101304 | 71 | 291 | 0.0 | 0.0 | 0.00 | 0.01 | 0.00 | 97 | 1011.7 |
| 20260905100805 | 71 | 291 | 0.0 | 0.0 | 0.00 | 0.01 | 0.00 | 97 | 1011.7 |
| 20260905095306 | 72 | 291 | 0.0 | 2.0 | 0.00 | 0.01 | 0.00 | 97 | 1011.8 |
| 20260905094305 | 72 | 291 | 0.0 | 2.0 | 0.00 | 0.01 | 0.00 | 97 | 1011.5 |
| 20260905093304 | 72 | 291 | 0.0 | 2.0 | 0.00 | 0.01 | 0.00 | 96 | 1011.4 |
| 20260905092804 | 72 | 291 | 0.0 | 2.0 | 0.00 | 0.01 | 0.00 | 96 | 1011.5 |
| 20260905092306 | 72 | 291 | 1.0 | 2.0 | 0.00 | 0.01 | 0.00 | 96 | 1011.5 |
| 20260905091804 | 72 | 291 | 0.0 | 2.0 | 0.00 | 0.01 | 0.00 | 96 | 1011.4 |
| 20260905091304 | 72 | 291 | 0.0 | 3.0 | 0.00 | 0.01 | 0.00 | 95 | 1011.3 |
| 20260905085306 | 72 | 298 | 0.0 | 3.0 | 0.00 | 0.01 | 0.00 | 95 | 1011.3 |
| 20260905084304 | 72 | 308 | 0.0 | 3.0 | 0.00 | 0.01 | 0.00 | 95 | 1011.3 |
| 20260905083806 | 73 | 308 | 1.0 | 3.0 | 0.00 | 0.01 | 0.00 | 95 | 1011.3 |
| 20260905082307 | 73 | 313 | 1.0 | 5.0 | 0.00 | 0.01 | 0.00 | 95 | 1011.3 |
| 20260905081805 | 73 | 271 | 1.0 | 6.0 | 0.00 | 0.01 | 0.00 | 95 | 1011.4 |
| 20260905081305 | 73 | 281 | 0.0 | 6.0 | 0.00 | 0.01 | 0.00 | 95 | 1011.4 |
| 20260905080805 | 73 | 276 | 2.0 | 5.0 | 0.00 | 0.01 | 0.00 | 95 | 1011.3 |
| 20260905075804 | 73 | 275 | 0.0 | 2.0 | 0.00 | 0.01 | 0.00 | 95 | 1011.5 |
| 20260905074805 | 74 | 275 | 0.0 | 3.0 | 0.00 | 0.01 | 0.00 | 95 | 1011.5 |
| 20260905074305 | 74 | 272 | 0.0 | 3.0 | 0.00 | 0.01 | 0.00 | 95 | 1011.6 |
| 20260905072306 | 74 | 261 | 1.0 | 7.0 | 0.00 | 0.01 | 0.00 | 95 | 1011.4 |
| 20260905071304 | 74 | 285 | 2.0 | 7.0 | 0.00 | 0.01 | 0.00 | 96 | 1011.7 |
| 20260905070804 | 74 | 263 | 1.0 | 6.0 | 0.00 | 0.01 | 0.00 | 96 | 1011.7 |
| 20260905065805 | 74 | 264 | 2.0 | 6.0 | 0.00 | 0.01 | 0.00 | 96 | 1011.7 |
| 20260905065307 | 74 | 274 | 2.0 | 6.0 | 0.00 | 0.01 | 0.00 | 96 | 1011.7 |
| 20260905063304 | 74 | 266 | 2.0 | 8.0 | 0.00 | 0.01 | 0.00 | 96 | 1011.8 |
| 20260905062306 | 74 | 277 | 2.0 | 7.0 | 0.00 | 0.01 | 0.00 | 96 | 1011.9 |
| 20260905060804 | 74 | 298 | 0.0 | 1.0 | 0.00 | 0.01 | 0.00 | 96 | 1011.9 |
| 20260905060305 | 74 | 299 | 0.0 | 3.0 | 0.00 | 0.01 | 0.00 | 96 | 1011.9 |
| 20260905054305 | 74 | 284 | 1.0 | 5.0 | 0.00 | 0.01 | 0.00 | 96 | 1012.1 |
| 20260905053804 | 74 | 258 | 1.0 | 3.0 | 0.00 | 0.01 | 0.00 | 95 | 1012.1 |
| 20260905053304 | 75 | 257 | 1.0 | 3.0 | 0.00 | 0.01 | 0.00 | 95 | 1012.1 |
| 20260905051304 | 75 | 257 | 1.0 | 6.0 | 0.00 | 0.01 | 0.00 | 95 | 1012.3 |
| 20260905045805 | 75 | 263 | 1.0 | 9.0 | 0.00 | 0.01 | 0.00 | 95 | 1012.5 |
| 20260905045306 | 75 | 257 | 1.0 | 3.0 | 0.00 | 0.01 | 0.00 | 95 | 1012.5 |
| 20260905044305 | 75 | 266 | 1.0 | 3.0 | 0.00 | 0.01 | 0.00 | 95 | 1012.6 |
| 20260905043805 | 75 | 252 | 1.0 | 3.0 | 0.00 | 0.01 | 0.00 | 95 | 1012.6 |
| 20260905042804 | 75 | 255 | 2.0 | 7.0 | 0.00 | 0.02 | 0.00 | 95 | 1012.5 |
| 20260905034804 | 75 | 274 | 2.0 | 3.0 | 0.00 | 0.03 | 0.02 | 96 | 1012.9 |
| 20260905034304 | 74 | 273 | 1.0 | 3.0 | 0.00 | 0.04 | 0.02 | 96 | 1012.9 |
| 20260905033804 | 74 | 269 | 1.0 | 3.0 | 0.00 | 0.04 | 0.02 | 96 | 1012.9 |
| 20260905033304 | 74 | 287 | 0.0 | 0.0 | 0.00 | 0.10 | 0.02 | 96 | 1012.9 |
| 20260905030304 | 74 | 287 | 0.0 | 0.0 | 0.00 | 0.13 | 0.02 | 96 | 1012.9 |
| 20260905025306 | 75 | 287 | 0.0 | 0.0 | 0.00 | 0.13 | 0.02 | 96 | 1012.8 |
| 20260905024304 | 75 | 287 | 0.0 | 0.0 | 0.00 | 0.13 | 0.02 | 96 | 1012.7 |
| 20260905023806 | 75 | 287 | 0.0 | 0.0 | 0.00 | 0.13 | 0.02 | 96 | 1012.7 |
| 20260905023305 | 75 | 287 | 0.0 | 0.0 | 0.00 | 0.13 | 0.02 | 96 | 1012.7 |
| 20260905022306 | 75 | 287 | 0.0 | 0.0 | 0.00 | 0.13 | 0.02 | 95 | 1012.6 |
| 20260905021804 | 75 | 287 | 0.0 | 1.0 | 0.00 | 0.13 | 0.02 | 95 | 1012.6 |
| 20260905021304 | 75 | 287 | 0.0 | 1.0 | 0.00 | 0.13 | 0.02 | 95 | 1012.6 |
| 20260905020804 | 75 | 287 | 0.0 | 2.0 | 0.00 | 0.13 | 0.02 | 95 | 1012.7 |
| 20260905020304 | 76 | 287 | 1.0 | 2.0 | 0.00 | 0.13 | 0.02 | 95 | 1012.7 |
| 20260905015806 | 76 | 287 | 1.0 | 2.0 | 0.00 | 0.13 | 0.02 | 95 | 1012.6 |
| 20260905014804 | 76 | 287 | 0.0 | 0.0 | 0.00 | 0.13 | 0.02 | 95 | 1012.5 |
| 20260905014304 | 76 | 287 | 0.0 | 1.0 | 0.00 | 0.13 | 0.02 | 95 | 1012.5 |
| 20260905012803 | 76 | 287 | 0.0 | 1.0 | 0.00 | 0.13 | 0.02 | 94 | 1012.4 |
| 20260905011804 | 76 | 287 | 0.0 | 1.0 | 0.00 | 0.13 | 0.02 | 94 | 1012.3 |
| 20260905010804 | 76 | 287 | 0.0 | 0.0 | 0.00 | 0.13 | 0.02 | 94 | 1012.2 |
| 20260905010305 | 76 | 287 | 0.0 | 0.0 | 0.00 | 0.13 | 0.02 | 94 | 1012.3 |
| 20260905004304 | 76 | 287 | 0.0 | 1.0 | 0.00 | 0.13 | 0.02 | 95 | 1012.2 |
| 20260905003804 | 76 | 287 | 0.0 | 0.0 | 0.00 | 0.13 | 0.02 | 94 | 1012.1 |
| 20260905000804 | 77 | 287 | 0.0 | 1.0 | 0.00 | 0.13 | 0.02 | 91 | 1012.1 |
| 20260904235804 | 77 | 287 | 0.0 | 0.0 | 0.00 | 0.13 | 0.02 | 91 | 1012.2 |
| 20260904234804 | 78 | 287 | 0.0 | 0.0 | 0.00 | 0.13 | 0.02 | 91 | 1012.2 |
| 20260904234303 | 78 | 287 | 0.0 | 0.0 | 0.00 | 0.13 | 0.02 | 90 | 1012.3 |
| 20260904233305 | 78 | 287 | 0.0 | 0.0 | 0.00 | 0.13 | 0.02 | 89 | 1012.4 |
| 20260904232804 | 79 | 287 | 0.0 | 0.0 | 0.00 | 0.13 | 0.02 | 88 | 1012.5 |
| 20260904232306 | 79 | 287 | 0.0 | 0.0 | 0.00 | 0.13 | 0.02 | 88 | 1012.5 |
| 20260904231305 | 80 | 287 | 0.0 | 0.0 | 0.00 | 0.13 | 0.02 | 87 | 1012.4 |
| 20260904230804 | 80 | 287 | 0.0 | 0.0 | 0.00 | 0.13 | 0.02 | 87 | 1012.4 |
| 20260904230304 | 80 | 287 | 0.0 | 0.0 | 0.00 | 0.13 | 0.02 | 86 | 1012.5 |
| 20260904225804 | 80 | 287 | 0.0 | 2.0 | 0.00 | 0.13 | 0.02 | 85 | 1012.4 |
| 20260904225306 | 81 | 287 | 1.0 | 2.0 | 0.00 | 0.13 | 0.02 | 86 | 1012.4 |
| 20260904224804 | 80 | 287 | 1.0 | 2.0 | 0.00 | 0.13 | 0.02 | 86 | 1012.2 |
| 20260904224304 | 80 | 292 | 0.0 | 1.0 | 0.00 | 0.13 | 0.02 | 86 | 1012.1 |
| 20260904223805 | 80 | 292 | 0.0 | 1.0 | 0.00 | 0.13 | 0.02 | 87 | 1012.2 |
| 20260904222805 | 80 | 292 | 0.0 | 1.0 | 0.00 | 0.13 | 0.02 | 85 | 1012.4 |
| 20260904221804 | 81 | 292 | 0.0 | 0.0 | 0.00 | 0.13 | 0.02 | 84 | 1012.6 |
| 20260904221304 | 81 | 292 | 0.0 | 0.0 | 0.00 | 0.13 | 0.02 | 85 | 1012.7 |
| 20260904213304 | 82 | 292 | 1.0 | 2.0 | 0.00 | 0.13 | 0.02 | 79 | 1012.8 |
| 20260904212804 | 82 | 292 | 0.0 | 2.0 | 0.00 | 0.13 | 0.02 | 80 | 1012.9 |
| 20260904211805 | 82 | 292 | 0.0 | 1.0 | 0.00 | 0.13 | 0.02 | 80 | 1012.8 |
| 20260904210304 | 83 | 292 | 0.0 | 2.0 | 0.00 | 0.13 | 0.02 | 77 | 1013.0 |
| 20260904205804 | 84 | 292 | 1.0 | 2.0 | 0.00 | 0.13 | 0.02 | 74 | 1013.1 |
| 20260904205305 | 84 | 292 | 1.0 | 3.0 | 0.00 | 0.13 | 0.02 | 74 | 1013.1 |
| 20260904204804 | 84 | 292 | 0.0 | 3.0 | 0.00 | 0.13 | 0.02 | 73 | 1013.1 |
| 20260904203305 | 85 | 269 | 0.0 | 5.0 | 0.00 | 0.13 | 0.02 | 71 | 1013.4 |
| 20260904202804 | 85 | 274 | 2.0 | 5.0 | 0.00 | 0.13 | 0.02 | 69 | 1013.3 |
| 20260904202306 | 85 | 296 | 2.0 | 5.0 | 0.00 | 0.13 | 0.02 | 70 | 1013.4 |
| 20260904201804 | 85 | 317 | 3.0 | 7.0 | 0.00 | 0.13 | 0.02 | 70 | 1013.4 |
| 20260904193804 | 88 | 280 | 2.0 | 6.0 | 0.00 | 0.13 | 0.02 | 67 | 1013.1 |
| 20260904191805 | 87 | 0 | 1.0 | 5.0 | 0.00 | 0.13 | 0.02 | 66 | 1013.5 |
| 20260904190804 | 88 | 255 | 2.0 | 7.0 | 0.00 | 0.13 | 0.02 | 63 | 1013.7 |
| 20260904190304 | 87 | 308 | 3.0 | 9.0 | 0.00 | 0.13 | 0.02 | 65 | 1013.7 |
| 20260904185306 | 87 | 350 | 3.0 | 8.0 | 0.00 | 0.13 | 0.02 | 64 | 1013.9 |
| 20260904184805 | 88 | 16 | 2.0 | 8.0 | 0.00 | 0.13 | 0.02 | 64 | 1014.0 |
| 20260904184304 | 87 | 263 | 2.0 | 9.0 | 0.00 | 0.13 | 0.02 | 63 | 1014.1 |
| 20260904183304 | 87 | 259 | 6.0 | 12.0 | 0.00 | 0.13 | 0.02 | 62 | 1014.1 |
| 20260904182306 | 87 | 239 | 3.0 | 8.0 | 0.00 | 0.13 | 0.02 | 64 | 1014.2 |
| 20260904181804 | 87 | 252 | 2.0 | 8.0 | 0.00 | 0.13 | 0.02 | 67 | 1014.1 |
| 20260904175806 | 86 | 339 | 2.0 | 9.0 | 0.00 | 0.13 | 0.02 | 67 | 1014.2 |
| 20260904174805 | 87 | 287 | 3.0 | 8.0 | 0.00 | 0.13 | 0.02 | 66 | 1014.2 |
| 20260904173804 | 87 | 327 | 1.0 | 8.0 | 0.00 | 0.13 | 0.02 | 67 | 1014.1 |
| 20260904172805 | 86 | 285 | 3.0 | 12.0 | 0.00 | 0.13 | 0.02 | 64 | 1014.2 |
| 20260904170804 | 85 | 42 | 1.0 | 9.0 | 0.00 | 0.13 | 0.02 | 70 | 1014.3 |
| 20260904170304 | 85 | 332 | 3.0 | 9.0 | 0.00 | 0.13 | 0.02 | 67 | 1014.4 |
| 20260904165804 | 84 | 268 | 3.0 | 6.0 | 0.00 | 0.13 | 0.02 | 68 | 1014.5 |
| 20260904164804 | 84 | 343 | 3.0 | 10.0 | 0.00 | 0.13 | 0.02 | 68 | 1014.5 |
| 20260904164304 | 84 | 249 | 2.0 | 9.0 | 0.00 | 0.13 | 0.02 | 70 | 1014.5 |
| 20260904162306 | 84 | 264 | 5.0 | 12.0 | 0.00 | 0.15 | 0.02 | 70 | 1014.7 |
| 20260904161805 | 83 | 272 | 5.0 | 9.0 | 0.00 | 0.17 | 0.02 | 72 | 1014.7 |
| 20260904160806 | 83 | 275 | 6.0 | 10.0 | 0.00 | 0.18 | 0.02 | 72 | 1014.7 |
| 20260904160303 | 83 | 228 | 5.0 | 12.0 | 0.00 | 0.18 | 0.02 | 72 | 1014.8 |
| 20260904155306 | 83 | 244 | 5.0 | 12.0 | 0.00 | 0.18 | 0.02 | 72 | 1014.8 |
| 20260904151803 | 80 | 259 | 3.0 | 10.0 | 0.00 | 0.18 | 0.02 | 79 | 1015.0 |
| 20260904150803 | 79 | 272 | 2.0 | 8.0 | 0.00 | 0.18 | 0.02 | 79 | 1014.9 |
| 20260904150305 | 79 | 190 | 2.0 | 8.0 | 0.00 | 0.18 | 0.02 | 79 | 1014.9 |
| 20260904145306 | 79 | 230 | 3.0 | 12.0 | 0.00 | 0.18 | 0.02 | 79 | 1014.9 |
| 20260904144303 | 79 | 330 | 5.0 | 12.0 | 0.00 | 0.18 | 0.02 | 81 | 1015.1 |
| 20260904143803 | 78 | 257 | 1.0 | 9.0 | 0.00 | 0.18 | 0.02 | 81 | 1015.1 |
| 20260904142306 | 78 | 260 | 4.0 | 12.0 | 0.00 | 0.18 | 0.02 | 81 | 1015.1 |
| 20260904141304 | 77 | 281 | 3.0 | 8.0 | 0.00 | 0.18 | 0.02 | 83 | 1015.0 |
| 20260904140804 | 77 | 318 | 2.0 | 8.0 | 0.00 | 0.18 | 0.02 | 84 | 1014.9 |
| 20260904135804 | 76 | 268 | 2.0 | 10.0 | 0.00 | 0.18 | 0.02 | 85 | 1014.9 |
| 20260904135306 | 76 | 266 | 3.0 | 8.0 | 0.00 | 0.18 | 0.02 | 86 | 1014.9 |
| 20260904134805 | 76 | 298 | 3.0 | 12.0 | 0.00 | 0.18 | 0.02 | 85 | 1014.8 |
| 20260904133805 | 76 | 306 | 4.0 | 10.0 | 0.00 | 0.18 | 0.02 | 86 | 1014.8 |
| 20260904132306 | 75 | 299 | 3.0 | 9.0 | 0.00 | 0.18 | 0.02 | 87 | 1014.8 |